Location: *
(40.4000°N, 15.1200°E)
Time: 03:33:25
(UTC+00:00)

STARLINK-1201 - Pass Details

Date: 09 April 2020
Orbit: 548 x 551 km, 53.0° (Epoch: 05 June)

Event Time Altitude Azimuth Distance (km) Brightness Sun altitude
Rises 19:00:59 0° 310° (NW) 2,713 8.7 -16.7°
Reaches altitude 10° 19:03:14 10° 312° (NW) 1,817 7.5 -17.1°
Maximum altitude 19:07:22 74° 38° (NE) 571 3.6 -17.8°
Enters shadow 19:08:38 42° 112° (ESE) 779 3.9 -18.0°
